Merimbula Real Estate, NSW, 2548 Bega Valley

Thinking about buying in Merimbula? Now could not be a better time, with a whopping 4556 properties either residential or commercial there's certainly plenty to choose from.

The average property price for this area is $736,000 with prices in this suburb ranging from $162,000 to $5,940,000.

Merimbula is located near the coast as well as views of the ocean, demand is likely to be high

Merimbula Real Estate Market Outlook

In Merimbula there has been a history of lower than average prices and demand, offering opportunities for investors or first home owners, especially in the context of the growth in working from home. Low average incomes in Merimbula is reflected in smaller and lower quality accommodation. Over time this may change providsing long-term returns but in the short to medium term, prices are likely to be less than state averages. The slightly lower than average earnings from occupations in Merimbula changes the housing and lifestyle preference. It is more a matter of what can be afforded rather than what would we prefer, leading to slower price increases over time. Low population density implies low demand and limits housing choices and price increases. Could be a good entry point for first home buyers needing to somehow get into the market. Lower than average industry presence in Merimbula we believe will be less of a negative impact than it has in the past. Post-COVID and the growth in working from home has lessened the demand for local employment options. This may make Merimbula a better buying opportunity than it may have been in the past.

About

For Sale

One Agency 2 BEVERLEY ST, MERIMBULA, NSW, 2548 3 2 3 Price Guide $750,000
One Agency UNIT 9, 81 MAIN ST, MERIMBULA, NSW, 2548 3 2 2 Price Guide $990,000
One Agency UNIT 7, 81 MAIN ST, MERIMBULA, NSW, 2548 2 2 2 Price Guide $700,000
One Agency UNIT 5, 3-5 SHORT ST, MERIMBULA, NSW, 2548 2 1 1 Price Guide $775,000

More

Local Schools


Merimbula Public School

(While the above schools are located with the suburb of Merimbula there may also be nearby schools whose catchments cover this suburb)

Local Crime Stats


Average Local Climate by month


(mm)
RAIN
Min (°C)
TEMP
Max (°C)
TEMP
Min (%)
HUMIDITY
Max (%)
HUMIDITY
(m/sec)
WIND
(MJ/sq m)
SOLAR
Jan1.917.022.664.5908.121.9
Feb2.617.022.565.890.97.518.4
Mar2.815.821.661.189.27.515.7
Apr2.214.020.258.588.66.612.8
May2.511.317.457.488.87.09.6
Jun3.39.715.55988.96.77.7
Jul1.78.815.054.287.66.58.5
Aug2.18.915.750.987.6711
Sept2.110.517.156.189.3814.9
Oct2.411.417.956.589.28.119.3
Nov2.213.819.760.889.38.323.3
Dec2.015.121.061.088.48.425.1

source: Australian Government Bureau of Meteorology

Recently Sold

11-05-2022 $650,000 8 / 10 MARINE PDE MERIMBULA 2548
09-05-2022 $680,000 5 / 6 CAMERON ST MERIMBULA 2548
09-05-2022 $355,000 1 / 17 OCEAN DR MERIMBULA 2548
06-05-2022 $1,500,000 33 HILL ST MERIMBULA 2548
06-05-2022 $790,000 17 / 10 MARINE PDE MERIMBULA 2548
05-05-2022 $685,000 3 / 39 OCEAN DR MERIMBULA 2548
05-05-2022 $790,000 56 KOWARA CRES MERIMBULA 2548
05-05-2022 $520,000 11 / 13 SHORT ST MERIMBULA 2548
05-05-2022 $2,200,000 12 MERIMBULA DR MERIMBULA 2548
03-05-2022 $420,000 6 / 121 MERIMBULA DR MERIMBULA 2548
26-04-2022 $400,000 6 / 2 KYEAMBA ST MERIMBULA 2548
22-04-2022 $390,000 2 / 51 MONARO ST MERIMBULA 2548
22-04-2022 $655,000 4 / 39 OCEAN DR MERIMBULA 2548
19-04-2022 $370,000 2 / 6 KYEAMBA ST MERIMBULA 2548
19-04-2022 $485,000 4 / 40 MAIN ST MERIMBULA 2548
14-04-2022 $780,000 6 / 3 SHORT ST MERIMBULA 2548
14-04-2022 $410,000 6 / 71 MAIN ST MERIMBULA 2548
14-04-2022 $410,000 2 / 20 ELIZABETH ST MERIMBULA 2548
14-04-2022 $790,000 1 / 16 JOHN CL MERIMBULA 2548
11-04-2022 $425,000 3 / 3 CALENDO CT MERIMBULA 2548
06-04-2022 $1,400,000 56 MONARO ST MERIMBULA 2548
06-04-2022 $1,400,000 56 MONARO ST MERIMBULA 2548
31-03-2022 $860,000 5 IMLAY ST MERIMBULA 2548
31-03-2022 $715,000 26 MONARO ST MERIMBULA 2548
30-03-2022 $851,000 12 BELLBIRD CRES MERIMBULA 2548
29-03-2022 $502,500 2 / 3 BEACH ST MERIMBULA 2548
28-03-2022 $815,000 5 / 81 MAIN ST MERIMBULA 2548
25-03-2022 $490,000 5 / 49 MONARO ST MERIMBULA 2548
25-03-2022 $457,000 4 / 22 REID ST MERIMBULA 2548
21-03-2022 $345,000 1 / 1 DUNNS LANE MERIMBULA 2548
18-03-2022 $1,045,000 1 / 2 MARINE PDE MERIMBULA 2548
17-03-2022 $355,500 2 / 6 VIEW ST MERIMBULA 2548
16-03-2022 $675,000 3 / 10 MARINE PDE MERIMBULA 2548
10-03-2022 $310,000 7 / 37 OCEAN DR MERIMBULA 2548
07-03-2022 $575,000 6 / 9 MARINE PDE MERIMBULA 2548
07-03-2022 $575,000 6 / 9 MARINE PDE MERIMBULA 2548
07-03-2022 $370,000 10 / 14 FISHPEN RD MERIMBULA 2548
28-02-2022 $900,000 2 / 29 OCEAN DR MERIMBULA 2548
28-02-2022 $380,000 3 / 16 OCEAN VIEW AVE MERIMBULA 2548
25-02-2022 $430,000 5 / 62 FISHPEN RD MERIMBULA 2548
24-02-2022 $400,000 3 / 1 MARINE PDE MERIMBULA 2548
23-02-2022 $350,000 1 / 6 VIEW ST MERIMBULA 2548
21-02-2022 $522,555 13 / 57 OCEAN DR MERIMBULA 2548
15-02-2022 $900,000 9 WOODLAND DR MERIMBULA 2548
14-02-2022 $440,000 4 / 61 OCEAN DR MERIMBULA 2548
11-02-2022 $1,100,000 14 JOHN CL MERIMBULA 2548
08-02-2022 $879,000 2 / 69 MAIN ST MERIMBULA 2548
01-02-2022 $740,000 3 / 65 MAIN ST MERIMBULA 2548
01-02-2022 $1,190,000 29 / 1 ELIZABETH ST MERIMBULA 2548
28-01-2022 $725,000 35 BEVERLEY ST MERIMBULA 2548

Residz covers 12m+ Australian properties and brings together a wealth of data to give you a better understanding of an area. From crime and schools to bush fire, flood risk and more. Begin your search for properties for sale or learn more about where you currently reside. Residz is an exciting next-generation Real Estate platform getting better by the day!